• In Österreich
  • Länderverzeichnis
  • Für 7 Tage
  • Wassertemperatur
  • Satellitenkarten
  • Wetterkarte
  • News
  • Widgets
  • user-avatar
    Anmelden

    Stündliche Wetter Osiecko

    Heute, 20 September, Donnerstag

    Zeit Temperatur Niederschläge Wind Luftdruck Luftfeuchtigkeit
    00:00 +21°C° 0.1 mm 2 m/S 757 mmHg 71%
    01:00 +20°C° 0.1 mm 2 m/S 757 mmHg 74%
    02:00 +20°C° 0 mm 2 m/S 757 mmHg 76%
    03:00 +19°C° 0 mm 2 m/S 757 mmHg 78%
    04:00 +19°C° 0 mm 2 m/S 757 mmHg 80%
    05:00 +19°C° 0 mm 2 m/S 757 mmHg 79%
    06:00 +19°C° 0 mm 2 m/S 757 mmHg 79%
    07:00 +19°C° 0 mm 2 m/S 758 mmHg 78%
    08:00 +21°C° 0 mm 2 m/S 758 mmHg 71%
    09:00 +24°C° 0 mm 2 m/S 758 mmHg 63%
    10:00 +26°C° 0 mm 2 m/S 758 mmHg 55%
    11:00 +27°C° 0 mm 2 m/S 757 mmHg 52%
    12:00 +28°C° 0 mm 3 m/S 757 mmHg 49%
    13:00 +29°C° 0 mm 3 m/S 757 mmHg 46%
    14:00 +29°C° 0 mm 3 m/S 756 mmHg 45%
    15:00 +29°C° 0 mm 3 m/S 756 mmHg 45%
    16:00 +29°C° 0 mm 3 m/S 756 mmHg 44%
    17:00 +28°C° 0 mm 3 m/S 756 mmHg 50%
    18:00 +26°C° 0 mm 2 m/S 755 mmHg 55%
    19:00 +24°C° 0 mm 2 m/S 755 mmHg 61%
    20:00 +24°C° 0 mm 2 m/S 755 mmHg 63%
    21:00 +23°C° 0 mm 2 m/S 755 mmHg 64%
    22:00 +23°C° 0 mm 2 m/S 755 mmHg 66%
    23:00 +21°C° 0 mm 3 m/S 755 mmHg 67%

    Morgen, 21 September, Freitag

    Zeit Temperatur Niederschläge Wind Luftdruck Luftfeuchtigkeit
    00:00 +21°C° 0 mm 3 m/S 754 mmHg 68%
    01:00 +21°C° 0 mm 3 m/S 754 mmHg 68%
    02:00 +20°C° 0 mm 3 m/S 754 mmHg 69%
    03:00 +20°C° 0 mm 3 m/S 753 mmHg 69%
    04:00 +20°C° 0 mm 3 m/S 753 mmHg 69%
    05:00 +20°C° 0 mm 3 m/S 753 mmHg 68%
    06:00 +20°C° 0 mm 4 m/S 752 mmHg 68%
    07:00 +20°C° 0 mm 4 m/S 752 mmHg 67%
    08:00 +22°C° 0 mm 5 m/S 752 mmHg 60%
    09:00 +26°C° 0 mm 5 m/S 751 mmHg 53%
    10:00 +28°C° 0 mm 6 m/S 751 mmHg 46%
    11:00 +29°C° 0 mm 6 m/S 750 mmHg 42%
    12:00 +30°C° 0 mm 7 m/S 749 mmHg 37%
    13:00 +32°C° 0 mm 7 m/S 749 mmHg 33%
    14:00 +30°C° 0 mm 7 m/S 749 mmHg 35%
    15:00 +30°C° 0 mm 7 m/S 748 mmHg 37%
    16:00 +29°C° 0 mm 6 m/S 748 mmHg 39%
    17:00 +24°C° 0.1 mm 6 m/S 749 mmHg 47%
    18:00 +20°C° 0.1 mm 6 m/S 750 mmHg 54%
    19:00 +15°C° 0.1 mm 6 m/S 751 mmHg 61%
    20:00 +15°C° 0 mm 5 m/S 752 mmHg 61%
    21:00 +15°C° 0 mm 4 m/S 753 mmHg 60%
    22:00 +14°C° 0 mm 3 m/S 754 mmHg 59%
    23:00 +14°C° 0 mm 4 m/S 754 mmHg 56%

    übermorgen, 22 September, Samstag

    Zeit Temperatur Niederschläge Wind Luftdruck Luftfeuchtigkeit
    00:00 +14°C° 0 mm 4 m/S 754 mmHg 53%
    01:00 +14°C° 0 mm 4 m/S 755 mmHg 50%
    02:00 +13°C° 0 mm 4 m/S 755 mmHg 51%
    03:00 +13°C° 0 mm 4 m/S 755 mmHg 51%
    04:00 +13°C° 0 mm 5 m/S 755 mmHg 52%
    05:00 +12°C° 0 mm 5 m/S 755 mmHg 54%
    06:00 +12°C° 0 mm 5 m/S 756 mmHg 56%
    07:00 +12°C° 0 mm 5 m/S 756 mmHg 58%
    08:00 +13°C° 0 mm 6 m/S 756 mmHg 55%
    09:00 +15°C° 0 mm 6 m/S 756 mmHg 52%
    10:00 +16°C° 0 mm 6 m/S 757 mmHg 48%
    11:00 +16°C° 0 mm 7 m/S 756 mmHg 46%
    12:00 +17°C° 0 mm 7 m/S 756 mmHg 43%
    13:00 +18°C° 0 mm 7 m/S 756 mmHg 40%
    14:00 +18°C° 0 mm 7 m/S 756 mmHg 41%
    15:00 +17°C° 0 mm 6 m/S 756 mmHg 41%
    16:00 +17°C° 0 mm 6 m/S 756 mmHg 41%
    17:00 +16°C° 0 mm 5 m/S 756 mmHg 44%
    18:00 +15°C° 0 mm 5 m/S 756 mmHg 46%
    19:00 +15°C° 0 mm 4 m/S 757 mmHg 48%
    20:00 +14°C° 0 mm 4 m/S 757 mmHg 51%
    21:00 +13°C° 0 mm 4 m/S 757 mmHg 53%
    22:00 +12°C° 0 mm 4 m/S 757 mmHg 56%
    23:00 +12°C° 0 mm 3 m/S 757 mmHg 59%

    23 September, Sonntag

    Zeit Temperatur Niederschläge Wind Luftdruck Luftfeuchtigkeit
    00:00 +11°C° 0 mm 3 m/S 757 mmHg 61%
    01:00 +11°C° 0 mm 3 m/S 757 mmHg 64%
    02:00 +10°C° 0 mm 3 m/S 757 mmHg 66%
    03:00 +10°C° 0 mm 3 m/S 757 mmHg 68%
    04:00 +9°C° 0 mm 3 m/S 757 mmHg 70%
    05:00 +9°C° 0 mm 3 m/S 757 mmHg 70%
    06:00 +10°C° 0 mm 3 m/S 757 mmHg 70%
    07:00 +10°C° 0 mm 4 m/S 757 mmHg 69%
    08:00 +11°C° 0 mm 4 m/S 757 mmHg 63%
    09:00 +13°C° 0 mm 4 m/S 756 mmHg 57%
    10:00 +14°C° 0 mm 4 m/S 756 mmHg 51%
    11:00 +15°C° 0 mm 4 m/S 755 mmHg 48%
    12:00 +15°C° 0 mm 4 m/S 754 mmHg 46%
    13:00 +17°C° 0 mm 4 m/S 753 mmHg 44%
    14:00 +16°C° 0.2 mm 3 m/S 752 mmHg 50%
    15:00 +16°C° 0.2 mm 3 m/S 751 mmHg 57%
    16:00 +14°C° 0.2 mm 3 m/S 750 mmHg 63%
    17:00 +13°C° 3.4 mm 4 m/S 749 mmHg 71%
    18:00 +13°C° 3.4 mm 4 m/S 747 mmHg 80%
    19:00 +12°C° 3.4 mm 5 m/S 746 mmHg 88%
    20:00 +13°C° 4.2 mm 5 m/S 744 mmHg 90%
    21:00 +14°C° 4.2 mm 6 m/S 742 mmHg 91%
    22:00 +15°C° 4.2 mm 6 m/S 740 mmHg 93%
    23:00 +16°C° 3 mm 6 m/S 739 mmHg 92%

    24 September, Montag

    Zeit Temperatur Niederschläge Wind Luftdruck Luftfeuchtigkeit
    00:00 +16°C° 3 mm 7 m/S 737 mmHg 91%
    01:00 +17°C° 3 mm 7 m/S 736 mmHg 90%
    02:00 +16°C° 0.6 mm 7 m/S 735 mmHg 85%
    03:00 +13°C° 0.6 mm 8 m/S 734 mmHg 80%
    04:00 +12°C° 0.6 mm 8 m/S 734 mmHg 75%
    05:00 +12°C° 0.1 mm 7 m/S 734 mmHg 78%
    06:00 +11°C° 0.1 mm 7 m/S 735 mmHg 81%
    07:00 +11°C° 0.1 mm 6 m/S 735 mmHg 83%
    08:00 +11°C° 0.9 mm 8 m/S 737 mmHg 82%
    09:00 +9°C° 0.9 mm 11 m/S 739 mmHg 81%
    10:00 +9°C° 0.9 mm 13 m/S 741 mmHg 80%
    11:00 +9°C° 0.4 mm 12 m/S 743 mmHg 76%
    12:00 +10°C° 0.4 mm 12 m/S 745 mmHg 71%
    13:00 +11°C° 0.4 mm 11 m/S 747 mmHg 67%
    14:00 +11°C° 0.3 mm 11 m/S 748 mmHg 67%
    15:00 +11°C° 0.3 mm 11 m/S 750 mmHg 67%
    16:00 +11°C° 0.3 mm 10 m/S 751 mmHg 67%
    17:00 +10°C° 0.2 mm 9 m/S 752 mmHg 70%
    18:00 +9°C° 0.2 mm 8 m/S 753 mmHg 72%
    19:00 +9°C° 0.2 mm 7 m/S 754 mmHg 75%
    20:00 +9°C° 0.1 mm 7 m/S 755 mmHg 76%
    21:00 +8°C° 0.1 mm 7 m/S 756 mmHg 76%
    22:00 +8°C° 0.1 mm 7 m/S 757 mmHg 77%
    23:00 +8°C° 0 mm 6 m/S 757 mmHg 76%

    25 September, Dienstag

    Zeit Temperatur Niederschläge Wind Luftdruck Luftfeuchtigkeit
    00:00 +7°C° 0 mm 6 m/S 758 mmHg 75%
    01:00 +7°C° 0 mm 6 m/S 758 mmHg 75%
    02:00 +7°C° 0 mm 6 m/S 759 mmHg 76%
    03:00 +7°C° 0 mm 6 m/S 759 mmHg 76%
    04:00 +7°C° 0 mm 6 m/S 759 mmHg 77%
    05:00 +7°C° 0.1 mm 5 m/S 760 mmHg 79%
    06:00 +7°C° 0.1 mm 5 m/S 760 mmHg 80%
    07:00 +7°C° 0.1 mm 5 m/S 760 mmHg 81%
    08:00 +8°C° 0.2 mm 6 m/S 761 mmHg 75%
    09:00 +9°C° 0.2 mm 6 m/S 762 mmHg 68%
    10:00 +10°C° 0.2 mm 6 m/S 762 mmHg 61%
    11:00 +11°C° 0.2 mm 6 m/S 763 mmHg 58%
    12:00 +11°C° 0.2 mm 6 m/S 763 mmHg 55%
    13:00 +13°C° 0.2 mm 6 m/S 763 mmHg 52%
    14:00 +13°C° 0 mm 6 m/S 763 mmHg 51%
    15:00 +13°C° 0 mm 5 m/S 763 mmHg 51%
    16:00 +13°C° 0 mm 5 m/S 763 mmHg 50%
    17:00 +12°C° 0 mm 4 m/S 764 mmHg 56%
    18:00 +11°C° 0 mm 3 m/S 764 mmHg 62%
    19:00 +10°C° 0 mm 2 m/S 764 mmHg 68%
    20:00 +9°C° 0 mm 2 m/S 764 mmHg 71%
    21:00 +9°C° 0 mm 2 m/S 765 mmHg 75%
    22:00 +9°C° 0 mm 2 m/S 765 mmHg 79%
    23:00 +9°C° 0 mm 3 m/S 765 mmHg 83%
    Mehr zeigen